• MPC Preparation (Info)

  • MPEC 2015-F92 : 2015 FG36

    The following Minor Planet Electronic Circular may be linked-to from your own Web pages, but must not otherwise be redistributed electronically.

    A form allowing access to any MPEC is at the bottom of this page.


    Read MPEC 2015-F91 Read MPEC 2015-F93


    M.P.E.C. 2015-F92                                Issued 2015 Mar. 24, 17:25 UT
    
         The Minor Planet Electronic Circulars contain information on unusual
             minor planets and routine data on comets.  They are published
       on behalf of Commission 20 of the International Astronomical Union by the
              Minor Planet Center, Smithsonian Astrophysical Observatory,
                              Cambridge, MA 02138, U.S.A.
    
                 Prepared using the Tamkin Foundation Computer Network
    
                                  MPC@CFA.HARVARD.EDU
                URL https://www.minorplanetcenter.net/    ISSN 1523-6714
    
                                       2015 FG36
    
    Observations:
         K15F36G* C2015 03 23.21572 10 17 32.56 -17 06 32.0          19.5 VqEF092703
         K15F36G  C2015 03 23.22072 10 17 30.62 -17 06 43.4          18.8 VqEF092703
         K15F36G  C2015 03 23.22571 10 17 28.49 -17 06 59.7          19.9 VqEF092703
         K15F36G  C2015 03 23.23071 10 17 26.54 -17 07 12.8          19.3 VqEF092703
         K15F36G  C2015 03 23.27292 10 17 09.57 -17 09 11.1          19.8 VqEF092703
         K15F36G KC2015 03 23.27300 10 17 09.63 -17 09 09.7          19.6 RoEF092291
         K15F36G KC2015 03 23.27381 10 17 09.31 -17 09 12.0                oEF092291
         K15F36G KC2015 03 23.27462 10 17 08.98 -17 09 14.1                oEF092291
         K15F36G  C2015 03 23.28498 10 17 04.77 -17 09 42.3          19.6 VqEF092703
         K15F36G  C2015 03 23.29101 10 17 02.23 -17 09 58.1          18.9 VqEF092703
         K15F36G  C2015 03 23.44600 10 16 08.82 -17 14 55.0          19.5 RtEF092474
         K15F36G  C2015 03 23.44671 10 16 08.52 -17 14 57.0          19.1 RtEF092474
         K15F36G  C2015 03 23.44742 10 16 08.23 -17 14 58.8          19.4 RtEF092474
         K15F36G  C2015 03 23.44813 10 16 07.94 -17 15 00.9          19.4 RtEF092474
         K15F36G  C2015 03 23.44884 10 16 07.68 -17 15 02.8          19.4 RtEF092474
         K15F36G  C2015 03 23.44955 10 16 07.38 -17 15 04.8          19.2 RtEF092474
         K15F36G KC2015 03 23.47720 10 15 58.48 -17 16 39.4          19.8 VqEF092E23
         K15F36G KC2015 03 23.48970 10 15 53.36 -17 17 15.7          19.8 VqEF092E23
         K15F36G KC2015 03 23.50220 10 15 48.30 -17 17 48.9          19.5 VqEF092E23
         K15F36G KC2015 03 23.85686 10 13 39.26 -17 36 30.4          19.3 RqEF092113
         K15F36G  C2015 03 23.86552 10 13 35.74 -17 36 53.6                qEF092246
         K15F36G  C2015 03 23.86583 10 13 35.67 -17 36 54.2                qEF092246
         K15F36G  C2015 03 23.86663 10 13 35.26 -17 36 57.0          18.7 RqEF092246
         K15F36G  C2015 03 23.86777 10 13 34.61 -17 36 55.2                qEF092246
         K15F36G  C2015 03 23.86863 10 13 34.45 -17 37 02.3                qEF092246
         K15F36G KC2015 03 23.86937 10 13 34.27 -17 37 05.7          19.5 RqEF092113
         K15F36G  C2015 03 23.86966 10 13 34.02 -17 37 05.5                qEF092246
         K15F36G KC2015 03 23.88188 10 13 29.16 -17 37 40.5          19.4 RqEF092113
         K15F36G  C2015 03 24.15604 10 11 50.27 -17 50 07.2          19.6 VqEF092G96
         K15F36G  C2015 03 24.15654 10 11 50.07 -17 50 08.9          19.5 VqEF092G96
         K15F36G  C2015 03 24.15703 10 11 49.88 -17 50 10.3          19.6 VqEF092G96
         K15F36G  C2015 03 24.15753 10 11 49.67 -17 50 11.5          19.6 VqEF092G96
         K15F36G KC2015 03 24.59437 10 09 03.13 -18 11 02.2          19.6 RqEF092O75
         K15F36G KC2015 03 24.59512 10 09 02.84 -18 11 04.2          19.7 RqEF092O75
         K15F36G KC2015 03 24.59587 10 09 02.53 -18 11 06.2          19.7 RqEF092O75
         K15F36G KC2015 03 24.59663 10 09 02.20 -18 11 08.6          19.6 RqEF092O75
    
    Observer details:
    113 Volkssternwarte Drebach, Schoenbrunn.  Observers G. Lehmann, M. Lehmann.
        0.5-m f/4.6 reflector + CCD.
    246 Klet Observatory-KLENOT.  Observers M. Tichy, J. Ticha, M. Kocer.
        Measurer M. Tichy.  1.06-m KLENOT Telescope + CCD.
    291 LPL/Spacewatch II.  Observer R. A. Mastaler.  1.8-m f/2.7 reflector + CCD.
    474 Mount John Observatory, Lake Tekapo.  Observers A. C. Gilmore,
        P. M. Kilmartin.  Measurer P. M. Kilmartin.  1.0-m f/7.7 reflector + CCD.
    703 Catalina Sky Survey.  Observer R. E. Hill.  Measurers E. J. Christensen,
        D. C. Fuls, A. R. Gibbs, A. D. Grauer, R. E. Hill, J. A. Johnson,
        R. A. Kowalski, S. M. Larson, R. G. Matheny, F. C. Shelly.  0.68-m Schmidt
        + CCD.
    E23 Arcadia.  Observer A. Hidas.
    G96 Mt. Lemmon Survey.  Observers R. E. Hill, D. C. Fuls.  Measurers
        E. J. Christensen, D. C. Fuls, A. R. Gibbs, A. D. Grauer, R. E. Hill,
        J. A. Johnson, R. A. Kowalski, S. M. Larson, R. G. Matheny, F. C. Shelly.
        1.5-m reflector + CCD.
    O75 ISON-Hureltogoot Observatory.  Observers T. Namkhai, S. Schmalz.  Measurer
        S. Schmalz.  0.4-m f/2.3 reflector + CCD.
    
    Orbital elements:
    2015 FG36                                                Earth MOID = 0.0099 AU
    Epoch 2015 June 27.0 TT = JDT 2457200.5                 MPC
    M  12.24355              (2000.0)            P               Q
    n   0.85419070     Peri.  300.56350     -0.00687587     +0.99947078
    a   1.1001017      Node   328.99408     -0.89502330     -0.02033101
    e   0.1684485      Incl.    3.53863     -0.44596638     +0.02539316
    P   1.15           H   23.7           G   0.15           U   7
    Residuals in seconds of arc
    150323 703  0.8+  0.0     150323 474  0.1-  0.0     150323 246  0.0   0.2-
    150323 703 (1.6+  2.5+)   150323 474  0.2-  0.1-    150323 113  0.4+  0.2-
    150323 703  0.2-  0.1+    150323 474  0.1+  0.0     150323 246  0.2-  0.5-
    150323 703  0.5+  0.8+    150323 474  0.1-  0.0     150323 113  1.1-  0.1+
    150323 703 (0.2-  1.6-)   150323 E23  0.7+  0.2+    150324 G96  0.1+  0.2+
    150323 291  0.1-  0.5-    150323 E23  0.3-  1.2-    150324 G96  0.1+  0.1-
    150323 291  0.1-  0.6-    150323 E23  0.4-  0.5+    150324 G96  0.3+  0.0
    150323 291  0.2-  0.5-    150323 113  0.1+  0.1-    150324 G96  0.2+  0.2+
    150323 703  0.2+  0.1-    150323 246  0.6+  0.2-    150324 O75  0.1-  0.4-
    150323 703 (1.7-  0.4+)   150323 246  1.4+  0.0     150324 O75  0.2+  0.3-
    150323 474  0.3+  0.1-    150323 246  0.1+  0.5-    150324 O75  0.2+  0.2-
    150323 474  0.0   0.1-    150323 246 (2.6-  4.5+)   150324 O75  0.0   0.4-
    
    Ephemeris:
    2015 FG36                a,e,i = 1.10, 0.17, 4                   q = 0.9148
    Date    TT    R. A. (2000) Decl.     Delta      r     Elong.  Phase     V
    2015 02 22    11 48 01.6 -01 55 20   0.1696  1.1447   154.6    21.7    21.2
    ...
    2015 03 09    11 19 50.8 -07 59 18   0.1146  1.1047   167.2    11.5    19.9
    ...
    2015 03 17    10 50 08.9 -12 38 57   0.09259 1.0825   160.3    18.1    19.6
    ...
    2015 03 23    10 18 49.1 -16 55 13   0.07983 1.0657   148.9    28.9    19.6
    2015 03 24    10 12 45.6 -17 41 24   0.07802 1.0629   146.7    31.0    19.6
    2015 03 25    10 06 27.2 -18 28 26   0.07630 1.0601   144.4    33.2    19.6
    ...
    2015 03 31    09 23 10.9 -23 21 36   0.06786 1.0433   129.6    47.5    19.7
    ...
    2015 04 08    08 10 44.9 -29 29 17   0.06153 1.0214   107.7    69.0    20.1
    ...
    2015 04 23    05 31 43.2 -33 21 15   0.06411 0.9829    67.9   108.7    21.8
    
    A. U. Tomatic                (C) Copyright 2015 MPC           M.P.E.C. 2015-F92
    

    Read MPEC 2015-F91 Read MPEC 2015-F93


    MPEC number:

    Enter an MPEC number in one of the following forms:

    • 1997-B01 (the full form)
    • J97B01 (the packed version of the full form)
    • B01 (the abbreviated form)